星链-31167 (STARLINK-31167 )

导读

STARLINK-31167是美国太空探索技术公司Starlink星座中的一颗卫星,于2024年1月7日发射入轨,归属星链互联网卫星项目。星链项目旨在构建全球卫星互联网通信网络,为全球偏远、欠发达地区等提供高速互联网接入服务,该卫星为星链星座持续扩容、完善全球网络覆盖能力提供支撑。

基本信息
目录编号:
58744
目录名称:
STARLINK-31167
国际标识:
2024-005S
轨道中心:
EARTH
卫星名称:
星链-31167
卫星全名:
星链-31167 (STARLINK-31167 )
卫星状态:
在轨 (已飞行978 天)
发射日期:
2024-01-07 UTC
国别 :
美国 (US)
星等 :
--
该卫星已列入 空间交会检测服务 Space Conjunction Data Service (SCDS) ,当前飞行风险评估等级: 高风险
轨道信息
数据来源 国际轨道数据 AOE轨道数据
星历时间 2026-09-10T05:12:29+0800
1天前
查看轨道信息
2026-09-04T23:00:00+0800
6天前
查看轨道信息
半长轴 6861.213km 6861.129km
偏心率 0.0001359 0.0001504
轨道倾角 43.003° 43.003°
近地点辐角 269.399° 260.690°
升交点赤经 114.078° 143.776°
平近点角 90.670° 306.616°
近地点 482.143km 481.96km
远地点 484.009km 484.024km
周期 94.267分钟 94.266分钟
每日圈数 15.275713 15.275994
详细信息
固有亮度:
5
最大亮度:
0.3
卫星平台:
Starlink v2.0 mini
覆盖范围:
全球
运营商:
太空探索技术公司
运营商所在国:
美国
制造商(研发单位):
太空探索技术公司
制造商所在国:
美国
使用方式:
暂无
卫星简介
星链(Starlink)计划是由太空探索技术公司(SpaceX)提出的一个巨型低轨卫星互联网星座项目,计划在2019年至2024年间在太空搭建由约1.2万颗卫星组成的“星链”网络,其中1584颗将部署在地球上空550千米处的近地轨道,并从2020年开始工作。该卫星仍在工作。
2D轨道图
3D轨道图
轨道高度分析图
轨道倾角分析图
轨道综合分析图
查看轨道综合分析图
交会数据列表
事件ID 空间交会对象 最接近时刻(TCA) 交会距离 交会风险概率(CRP) 交会风险指数(CRI) 操作
CDM_260911-055605-874406-196521
2026-09-11T
05:56:47+0000
0.346 km
远距离
3.041034E-4 高风险 0.85
CDM_260911-073505-874406-087822
2026-09-11T
07:35:36+0000
0.937 km
远距离
3.207734E-5 中风险 0.65
CDM_260912-032705-874406-257221
2026-09-12T
03:27:25+0000
0.936 km
远距离
2.552615E-5 中风险 0.63
CDM_260912-190105-864705-874423
2026-09-12T
19:01:46+0000
1.030 km
极远距离
2.402112E-5 中风险 0.63
CDM_260912-182105-874406-249321
2026-09-12T
18:21:29+0000
1.016 km
极远距离
1.937441E-5 中风险 0.61
CDM_260912-164705-874406-249321
2026-09-12T
16:47:20+0000
1.020 km
极远距离
1.912713E-5 中风险 0.61
CDM_260913-105005-874406-249321
2026-09-13T
10:50:06+0000
1.034 km
极远距离
1.820443E-5 中风险 0.6
CDM_260911-191705-874406-196521
2026-09-11T
19:17:05+0000
1.143 km
极远距离
1.09587E-5 中风险 0.56
CDM_260911-205105-874406-196521
2026-09-11T
20:51:14+0000
1.368 km
极远距离
5.919369E-6 低风险 0.5
CDM_260911-073005-874406-196521
2026-09-11T
07:30:56+0000
1.533 km
极远距离
4.084744E-6 低风险 0.47
与全量物体交会距离演化趋势
与全量物体交会风险概率演化趋势